time_stamp(utc),avg(mph),gust(mph),direction(deg),12m_air_temp(f),sonic_u(cm/s),sonic_v(cm/s),sonic_w(cm/s),pressure,2m_air_temp(f),pyranometer(W/m^2)
"2019-12-17 00:03:34+00",10.9,11.9,,38.3,426,224,18,1023.37,37.5,0
"2019-12-17 00:08:34+00",11.1,13.1,,38.3,435,236,30,1023.4,37.5,0
"2019-12-17 00:13:34+00",11.5,13.5,,38.3,476,196,28,1023.13,37.5,0
"2019-12-17 00:18:34+00",9.8,12.8,,38.2,416,166,26,1022.96,37.5,0
"2019-12-17 00:23:34+00",10.9,11.9,,38.3,465,173,29,1022.8,37.4,0
"2019-12-17 00:28:34+00",13.6,15.6,,38.3,582,195,20,1022.61,37.4,0
"2019-12-17 00:33:34+00",12.4,14.4,,38.4,527,161,22,1022.4,37.5,0
"2019-12-17 00:38:34+00",12.0,15.0,,38.4,517,93,40,1022.41,37.5,0
"2019-12-17 00:43:34+00",12.5,14.5,,38.5,537,180,50,1022.55,37.6,0
"2019-12-17 00:48:34+00",12.8,14.8,,38.7,560,156,25,1022.4,37.7,0
"2019-12-17 00:53:34+00",11.0,15.0,,38.7,490,102,38,1022.27,37.8,0
"2019-12-17 00:58:34+00",12.5,14.5,,38.7,544,152,52,1022.12,37.8,0
"2019-12-17 01:03:34+00",14.0,16.0,,38.9,609,116,37,1022.23,37.8,0
"2019-12-17 01:08:34+00",14.3,16.3,,38.9,607,172,38,1022.01,37.9,0
"2019-12-17 01:13:34+00",12.4,14.4,,38.9,536,143,20,1021.92,37.9,0
"2019-12-17 01:18:34+00",13.0,15.0,,39,561,143,31,1021.95,38,0
"2019-12-17 01:23:34+00",12.5,15.5,,39.1,535,144,47,1021.88,38.1,0
"2019-12-17 01:28:34+00",11.5,13.5,,39.1,491,168,28,1021.96,38.2,0
"2019-12-17 01:33:34+00",11.9,14.9,,39.1,531,135,38,1021.94,38.2,0
"2019-12-17 01:38:34+00",14.4,16.4,,39.2,620,154,29,1021.63,38.3,0
"2019-12-17 01:43:34+00",14.0,15.0,,39.2,609,140,48,1021.49,38.3,0
"2019-12-17 01:48:34+00",13.7,15.7,,39.1,594,141,20,1021.46,38.3,0
"2019-12-17 01:53:34+00",14.1,16.1,,39.3,627,74,41,1021.48,38.4,0
"2019-12-17 01:58:34+00",11.6,13.6,,39.4,504,105,27,1021.62,38.5,0
"2019-12-17 02:03:34+00",12.4,14.4,,39.5,545,137,41,1021.61,38.6,0
"2019-12-17 02:08:34+00",12.5,14.5,,39.6,550,123,37,1021.52,38.7,0
"2019-12-17 02:13:34+00",13.4,14.4,,39.7,584,150,46,1021.67,38.8,0
"2019-12-17 02:18:34+00",14.0,16.0,,39.8,674,67,5,1021.43,38.8,0
"2019-12-17 02:23:34+00",13.4,15.4,,39.8,3534,94,-1343,1021.04,38.8,0
"2019-12-17 02:28:34+00",15.5,17.5,,39.9,2594,76,-909,1021.03,38.9,0
"2019-12-17 02:33:34+00",11.1,14.1,,40,496,9,31,1020.87,39,0
"2019-12-17 02:38:34+00",13.3,15.3,,40,592,54,36,1020.88,39.1,0
"2019-12-17 02:43:34+00",13.9,15.9,,40.1,696,51,2,1020.67,39.1,0
"2019-12-17 02:48:34+00",13.1,15.1,,40,1249,98,-294,1020.67,39.2,0
"2019-12-17 02:53:34+00",15.8,16.8,,40.2,3576,87,-1333,1020.5,39.3,0
"2019-12-17 03:28:34+00",15.5,17.5,,40.9,2998,82,-1065,1019.64,40,0
"2019-12-17 03:33:34+00",15.7,17.7,,41,2094,79,-648,1019.81,40.1,0
"2019-12-17 03:38:34+00",16.2,17.2,,41.2,722,89,42,1019.75,40.2,0
"2019-12-17 03:43:34+00",16.1,18.1,,41.2,719,68,39,1019.78,40.3,0
"2019-12-17 03:48:34+00",16.4,19.4,,41.3,720,40,51,1019.63,40.4,0
"2019-12-17 03:53:34+00",14.4,17.4,,41.3,651,33,47,1019.44,40.5,0
"2019-12-17 03:58:34+00",15.4,18.4,,41.5,666,-8,49,1019.53,40.7,0
"2019-12-17 04:03:34+00",18.9,21.9,,41.7,944,44,-4,1019.04,40.8,0
"2019-12-17 04:08:34+00",17.6,19.6,,41.8,792,-19,37,1018.89,40.9,0
"2019-12-17 04:13:34+00",14.2,17.2,,41.9,627,-11,43,1018.97,41,0
"2019-12-17 04:18:34+00",16.0,18.0,,42,709,-9,42,1018.65,41.2,0
"2019-12-17 04:23:34+00",16.6,18.6,,42.1,724,-56,36,1018.66,41.3,0
"2019-12-17 04:28:34+00",14.4,18.4,,42.2,631,-83,36,1018.75,41.4,0
"2019-12-17 04:33:34+00",17.5,19.5,,42.2,777,-47,23,1018.33,41.5,0
"2019-12-17 04:38:34+00",16.1,18.1,,42.2,699,-2,31,1017.9,41.6,0
"2019-12-17 04:43:34+00",18.9,20.9,,42.3,832,66,34,1017.59,41.7,0
"2019-12-17 04:48:34+00",15.4,18.4,,42.5,670,70,47,1017.58,41.8,0
"2019-12-17 04:53:34+00",15.2,17.2,,42.5,678,32,43,1017.54,41.9,0
"2019-12-17 04:58:34+00",15.1,18.1,,42.7,677,52,39,1017.44,42,0
"2019-12-17 05:03:34+00",17.8,19.8,,42.7,777,78,52,1017.11,42.1,0
"2019-12-17 05:08:34+00",14.2,17.2,,42.8,631,78,40,1017.05,42.2,0
"2019-12-17 05:13:34+00",13.7,16.7,,42.9,595,104,71,1017.1,42.3,0
"2019-12-17 05:18:34+00",13.4,15.4,,43,583,122,25,1017.31,42.4,0
"2019-12-17 05:23:34+00",12.9,14.9,,43.1,557,194,25,1017.43,42.5,0
"2019-12-17 05:28:34+00",11.5,13.5,,43.1,457,232,21,1017.37,42.6,0
"2019-12-17 05:33:34+00",13.4,15.4,,43.1,487,344,27,1017.45,42.6,0
"2019-12-17 05:38:34+00",13.3,16.3,,43.1,524,295,50,1017.26,42.6,0
"2019-12-17 05:43:34+00",13.1,15.1,,43,416,381,16,1017.42,42.6,0
"2019-12-17 05:48:34+00",11.6,13.6,,42.9,340,342,16,1017.79,42.5,0
"2019-12-17 05:53:34+00",11.3,14.3,,42.8,415,252,42,1017.03,42.5,0
"2019-12-17 05:58:34+00",14.3,16.3,,42.8,591,264,37,1016.21,42.4,0
"2019-12-17 06:03:34+00",14.4,16.4,,42.9,573,289,32,1016.19,42.4,0
"2019-12-17 06:08:34+00",12.3,17.3,,43.2,507,227,50,1016.55,42.7,0
"2019-12-17 06:13:34+00",13.8,17.8,,43.3,537,287,44,1016.5,42.8,0
"2019-12-17 06:18:34+00",15.9,19.9,,43.3,635,326,36,1016.23,42.8,0
"2019-12-17 06:23:34+00",17.5,20.5,,43.3,565,492,30,1016.85,42.8,0
"2019-12-17 06:28:34+00",19.6,21.6,,43.2,685,502,51,1016.51,42.8,0
"2019-12-17 06:33:34+00",21.0,25.0,,42.9,241,1487,-465,1016.28,42.6,0
"2019-12-17 06:38:34+00",16.4,21.4,,42.7,369,575,6,1016.9,42.3,0
"2019-12-17 06:43:34+00",17.6,20.6,,42.2,496,545,28,1016.85,42,0
"2019-12-17 06:48:34+00",20.5,23.5,,42.1,693,1086,202,1016.98,41.7,0
"2019-12-17 06:53:34+00",22.7,25.7,,41.9,781,747,-105,1015.95,41.6,0
"2019-12-17 06:58:34+00",20.5,25.5,,41.8,701,127,-50,1015.68,41.5,0
"2019-12-17 07:03:34+00",21.2,26.2,,42.1,503,90,-31,1016.03,41.6,0
"2019-12-17 07:08:34+00",18.6,22.6,,42.3,435,650,23,1016.9,41.9,0
"2019-12-17 07:13:34+00",17.9,22.9,,42.1,381,689,-32,1017.21,41.7,0
"2019-12-17 07:18:34+00",17.6,19.6,,42,535,556,-23,1016.57,41.6,0
"2019-12-17 07:23:34+00",18.3,24.3,,42.4,752,307,91,1016.54,41.9,0
"2019-12-17 07:28:34+00",16.5,19.5,,42.6,652,339,45,1016.4,42.1,0
"2019-12-17 07:33:34+00",19.7,21.7,,42.7,902,237,33,1015.87,42.1,0
"2019-12-17 07:38:34+00",20.7,23.7,,43,923,82,-115,1015.55,42.3,0
"2019-12-17 07:43:34+00",20.9,25.9,,43.2,822,-38,-99,1015.11,42.5,0
"2019-12-17 07:48:34+00",23.9,27.9,,43.3,1352,-749,-871,1014.29,42.6,0
"2019-12-17 07:53:34+00",20.6,23.6,,43.5,1276,4,-200,1014.65,42.7,0
"2019-12-17 07:58:34+00",22.8,26.8,,43.7,2093,5,-539,1014.4,42.9,0
"2019-12-17 08:03:34+00",22.8,25.8,,43.9,1012,-57,58,1014.13,43,0
"2019-12-17 08:08:34+00",19.6,24.6,,43.9,1230,57,-116,1014.19,43.1,0
"2019-12-17 08:13:34+00",19.5,21.5,,44,822,122,48,1014.21,43.2,0
"2019-12-17 08:18:34+00",21.4,26.4,,44,1165,168,-55,1014.08,43.2,0
"2019-12-17 08:23:34+00",21.1,25.1,,44,1064,-74,-329,1014.01,43.3,0
"2019-12-17 08:28:34+00",20.3,23.3,,43.9,1144,88,-147,1013.92,43.1,0
"2019-12-17 08:33:34+00",15.1,18.1,,43.9,646,190,59,1013.87,43.2,0
"2019-12-17 08:38:34+00",17.9,20.9,,43.9,768,252,29,1013.89,43.2,0
"2019-12-17 08:43:34+00",14.5,17.5,,43.9,615,250,37,1013.95,43.1,0
"2019-12-17 08:48:34+00",16.8,18.8,,43.8,730,189,41,1013.46,43.1,0
"2019-12-17 08:53:34+00",17.1,20.1,,43.9,739,97,44,1013.39,43.1,0
"2019-12-17 08:58:34+00",16.4,19.4,,43.9,703,211,44,1013.37,43.1,0
"2019-12-17 09:03:34+00",12.9,15.9,,44,522,260,33,1013.57,43.2,0
"2019-12-17 09:08:34+00",14.3,16.3,,44,542,323,30,1013.47,43.3,0
"2019-12-17 09:13:34+00",15.0,17.0,,43.9,597,284,42,1013.26,43.2,0
"2019-12-17 09:18:34+00",11.2,14.2,,43.9,431,250,35,1013.04,43.3,0
"2019-12-17 09:23:34+00",11.3,14.3,,43.9,237,396,17,1013.3,43.3,0
"2019-12-17 09:28:34+00",17.7,20.7,,44.1,778,296,25,1012.57,43.3,0
"2019-12-17 09:33:34+00",15.1,18.1,,44.1,589,350,35,1012.62,43.4,0
"2019-12-17 09:38:34+00",16.6,18.6,,44.4,662,325,25,1012.16,43.6,0
"2019-12-17 09:43:34+00",15.7,17.7,,44.3,683,194,51,1012.17,43.6,0
"2019-12-17 09:48:34+00",13.6,16.6,,44.5,582,165,33,1011.9,43.8,0
"2019-12-17 09:53:34+00",11.4,13.4,,44.5,413,281,28,1012.39,43.8,0
"2019-12-17 09:58:34+00",9.7,10.7,,44.4,279,292,14,1012.48,43.8,0
"2019-12-17 10:03:34+00",12.5,13.5,,44.6,443,319,38,1012.08,43.9,0
"2019-12-17 10:08:34+00",11.8,12.8,,44.5,372,334,19,1012.1,43.9,0
"2019-12-17 10:13:34+00",10.5,12.5,,44.4,356,276,20,1011.94,43.9,0
"2019-12-17 10:18:34+00",11.0,12.0,,44.3,382,283,14,1011.82,43.7,0
"2019-12-17 10:23:34+00",11.6,12.6,,44.5,413,305,23,1011.72,43.8,0
"2019-12-17 10:28:34+00",10.3,11.3,,44.1,292,303,3,1011.61,43.7,0
"2019-12-17 10:33:34+00",11.1,12.1,,44.3,408,278,10,1011.46,43.6,0
"2019-12-17 10:38:34+00",12.6,13.6,,44.7,456,319,32,1011.32,43.9,0
"2019-12-17 10:43:34+00",12.9,14.9,,44.5,318,449,9,1011.4,44,0
"2019-12-17 10:48:34+00",14.0,16.0,,44.4,376,455,9,1011.23,44,0
"2019-12-17 10:53:34+00",14.8,15.8,,44,395,497,3,1011.18,43.7,0
"2019-12-17 10:58:34+00",13.5,14.5,,44,388,405,10,1011.39,43.6,0
"2019-12-17 11:03:34+00",11.0,13.0,,44.2,335,276,53,1011.36,43.7,0
"2019-12-17 11:08:34+00",9.5,11.5,,44.2,182,349,2,1011.21,43.8,0
"2019-12-17 11:13:34+00",11.6,14.6,,44.1,188,465,-1,1011.26,43.7,0
"2019-12-17 11:18:34+00",11.9,13.9,,43.9,160,490,17,1011.24,43.6,0
"2019-12-17 11:23:34+00",12.6,15.6,,44.1,315,452,1,1011.16,43.7,0
"2019-12-17 11:28:34+00",7.3,12.3,,44.2,176,232,11,1011.1,43.8,0
"2019-12-17 11:33:34+00",17.5,19.5,,44.3,620,452,33,1010.62,43.9,0
"2019-12-17 11:38:34+00",15.5,17.5,,44.1,561,410,40,1010.47,43.8,0
"2019-12-17 11:43:34+00",10.5,12.5,,44.2,320,315,0,1010.32,43.8,0
"2019-12-17 11:48:34+00",15.4,17.4,,44.4,514,429,32,1010.4,44,0
"2019-12-17 11:53:34+00",11.2,14.2,,44.5,397,288,14,1010.6,44,0
"2019-12-17 11:58:34+00",10.4,11.4,,44.5,263,356,-1,1010.77,44.1,0
"2019-12-17 12:03:34+00",7.4,9.4,,44.5,125,283,2,1010.98,44.1,0
"2019-12-17 12:08:34+00",9.8,13.8,,44.3,227,365,-9,1010.71,44,0
"2019-12-17 12:13:34+00",12.4,14.4,,44.4,387,356,25,1010.4,44.1,0
"2019-12-17 12:18:34+00",12.5,14.5,,44.6,405,357,33,1010.19,44.1,0
"2019-12-17 12:23:34+00",16.9,19.9,,44.8,633,409,42,1010.01,44.3,0
"2019-12-17 12:28:34+00",15.6,20.6,,45,446,466,5,1009.97,44.5,0
"2019-12-17 12:33:34+00",9.4,11.4,,44.7,258,288,10,1009.98,44.3,0
"2019-12-17 12:38:34+00",12.1,13.1,,44.6,382,350,20,1009.95,44.2,0
"2019-12-17 12:43:34+00",12.8,14.8,,44.6,364,387,16,1009.76,44.2,0
"2019-12-17 12:48:34+00",11.6,12.6,,44.7,379,312,15,1009.68,44.2,0
"2019-12-17 12:53:34+00",15.0,17.0,,44.8,530,368,26,1009.63,44.3,0
"2019-12-17 12:58:34+00",12.3,14.3,,45,525,201,89,1009.45,44.4,0
"2019-12-17 13:03:34+00",11.0,14.0,,45.1,439,222,34,1009.29,44.6,0
"2019-12-17 13:08:34+00",14.1,16.1,,45.4,534,330,27,1008.97,44.9,0
"2019-12-17 13:13:34+00",10.4,14.4,,45.4,374,242,29,1009.04,44.9,0
"2019-12-17 13:18:34+00",10.0,12.0,,45.5,390,223,28,1009.01,45.1,0
"2019-12-17 13:23:34+00",12.9,13.9,,45.4,439,353,15,1008.95,45,0
"2019-12-17 13:28:34+00",10.9,12.9,,45.1,376,293,13,1009.23,44.8,0
"2019-12-17 13:33:34+00",12.8,14.8,,44.2,405,363,15,1009.03,44.2,0
"2019-12-17 13:38:34+00",12.8,14.8,,43.4,315,453,10,1009.11,43.5,0
"2019-12-17 13:43:34+00",11.4,14.4,,42.9,266,351,67,1009.19,42.9,0
"2019-12-17 13:48:34+00",11.8,13.8,,42.9,222,446,8,1009.3,42.8,0
"2019-12-17 13:53:34+00",11.9,14.9,,43.1,279,442,5,1009.17,42.9,0
"2019-12-17 13:58:34+00",8.8,11.8,,43.2,147,327,5,1009.14,43,0
"2019-12-17 14:03:34+00",8.6,9.6,,43.2,172,323,1,1009.2,43.1,0
"2019-12-17 14:08:34+00",9.4,10.4,,43.3,234,333,8,1009.14,43.2,0
"2019-12-17 14:13:34+00",9.7,11.7,,43.3,222,361,-2,1009.13,43.2,0
"2019-12-17 14:18:34+00",10.1,12.1,,43.3,237,375,9,1009.02,43.2,0
"2019-12-17 14:23:34+00",9.5,11.5,,43.4,223,357,1,1009.03,43.3,0
"2019-12-17 14:28:34+00",9.3,11.3,,43.4,266,288,1,1008.93,43.3,0
"2019-12-17 14:33:34+00",7.8,9.8,,43.4,207,256,4,1008.88,43.3,0
"2019-12-17 14:38:34+00",8.3,9.3,,43.4,313,176,5,1008.7,43.4,0
"2019-12-17 14:43:34+00",7.1,8.1,,43.4,193,233,9,1008.69,43.4,0
"2019-12-17 14:48:34+00",8.6,10.6,,43.4,270,259,15,1008.73,43.4,0
"2019-12-17 14:53:34+00",9.4,11.4,,43.3,326,239,8,1008.63,43.4,0
"2019-12-17 14:58:34+00",7.5,8.5,,43.4,172,259,-6,1008.59,43.3,0
"2019-12-17 15:03:34+00",7.6,8.6,,43.3,145,287,0,1008.54,43.4,0
"2019-12-17 15:08:34+00",7.6,9.6,,43.4,137,291,11,1008.55,43.4,0
"2019-12-17 15:13:34+00",6.0,7.0,,43.4,152,202,19,1008.41,43.4,0
"2019-12-17 15:18:34+00",6.7,7.7,,43.4,64,281,2,1008.34,43.4,0
"2019-12-17 15:23:34+00",8.4,9.4,,43.4,149,318,0,1008.09,43.5,0
"2019-12-17 15:28:34+00",6.7,7.7,,43.3,174,217,16,1007.79,43.4,0
"2019-12-17 15:33:34+00",9.2,11.2,,43.3,35,395,7,1007.94,43.5,0
"2019-12-17 15:38:34+00",7.4,8.4,,43.3,78,302,-6,1007.81,43.4,0
"2019-12-17 15:43:34+00",5.3,7.3,,43.3,104,182,7,1007.56,43.3,0
"2019-12-17 15:48:34+00",6.7,7.7,,43.2,135,246,-5,1007.26,43.3,0
"2019-12-17 15:53:34+00",5.4,6.4,,43.3,17,232,10,1007.47,43.3,0
"2019-12-17 15:58:34+00",5.7,6.7,,43.3,12,237,5,1007.52,43.4,0
"2019-12-17 16:03:34+00",6.1,6.1,,43.3,117,222,3,1006.96,43.4,0
"2019-12-17 16:08:34+00",6.4,7.4,,43.3,80,245,-4,1006.92,43.4,0
"2019-12-17 16:13:34+00",4.4,5.4,,43.3,96,139,7,1006.66,43.4,0
"2019-12-17 16:18:34+00",3.7,4.7,,43.3,19,151,10,1006.53,43.4,0
"2019-12-17 16:23:34+00",4.9,6.9,,43.4,99,177,7,1006.58,43.6,0
"2019-12-17 16:28:34+00",7.0,7.0,,43.3,238,181,11,1006.15,43.6,0
"2019-12-17 16:33:34+00",5.5,6.5,,43.4,145,173,7,1006.21,43.6,0
"2019-12-17 16:38:34+00",5.0,6.0,,43.6,145,147,13,1006.05,43.7,0
"2019-12-17 16:43:34+00",5.7,5.7,,43.6,153,174,6,1006,43.8,0
"2019-12-17 16:48:34+00",5.8,6.8,,43.6,157,180,-4,1005.87,43.8,0
"2019-12-17 16:53:34+00",5.7,5.7,,43.5,163,166,-1,1005.77,43.8,0
"2019-12-17 16:58:34+00",6.2,7.2,,43.5,139,216,-4,1005.81,43.7,0
"2019-12-17 17:03:34+00",5.5,6.5,,43.6,129,182,3,1005.51,43.7,0
"2019-12-17 17:08:34+00",4.8,5.8,,43.6,138,142,-2,1005.41,43.7,0
"2019-12-17 17:13:34+00",5.5,6.5,,43.6,154,155,10,1005.16,43.8,0
"2019-12-17 17:18:34+00",5.1,6.1,,43.6,137,148,11,1004.93,43.8,0
"2019-12-17 17:23:34+00",4.4,4.4,,43.7,113,136,-3,1004.85,43.9,0
"2019-12-17 17:28:34+00",5.1,7.1,,43.8,112,178,10,1004.78,43.9,0
"2019-12-17 17:33:34+00",5.3,5.3,,43.6,142,162,11,1004.72,43.8,0
"2019-12-17 17:38:34+00",5.0,6.0,,43.7,79,189,4,1004.67,43.8,0
"2019-12-17 17:43:34+00",6.3,7.3,,43.7,115,237,3,1004.53,43.8,0
"2019-12-17 17:48:34+00",5.2,6.2,,43.7,99,189,4,1004.43,43.9,0
"2019-12-17 17:53:34+00",5.5,7.5,,43.7,76,210,7,1004.34,43.9,0
"2019-12-17 17:58:34+00",7.8,9.8,,43.8,154,291,4,1003.89,44,0
"2019-12-17 18:03:34+00",7.8,9.8,,43.9,1659,291,-716,1003.81,44.1,0
"2019-12-17 18:08:34+00",7.6,8.6,,44,301,250,-67,1003.74,44.2,0
"2019-12-17 18:13:34+00",5.9,7.9,,44.2,187,184,-5,1003.78,44.3,0
"2019-12-17 18:18:34+00",6.8,7.8,,44.2,824,211,-298,1003.72,44.3,0
"2019-12-17 18:23:34+00",6.3,7.3,,44.2,3835,181,-1741,1003.56,44.3,0
"2019-12-17 18:28:34+00",7.0,8.0,,44.2,3244,227,-1471,1003.52,44.3,0
"2019-12-17 18:33:34+00",5.9,6.9,,44.2,926,175,-362,1003.46,44.3,0
"2019-12-17 18:38:34+00",5.0,6.0,,44.3,213,130,-24,1003.58,44.3,0
"2019-12-17 18:43:34+00",5.5,6.5,,44.3,1949,156,-838,1003.5,44.3,0
"2019-12-17 18:48:34+00",5.9,6.9,,44.1,391,130,-73,1003.51,44.3,0
"2019-12-17 18:53:34+00",6.3,7.3,,43.8,288,166,-35,1003.41,44.1,0
"2019-12-17 18:58:34+00",7.1,8.1,,43.7,4457,209,-2021,1003.43,43.9,0
"2019-12-17 19:03:34+00",6.4,7.4,,43.6,4807,134,-2165,1003.48,43.8,0
"2019-12-17 19:08:34+00",6.7,7.7,,43.3,3367,244,-1535,1003.59,43.5,0
"2019-12-17 19:13:34+00",5.8,6.8,,43.2,4675,191,-2163,1003.65,43.4,0
"2019-12-17 19:23:34+00",5.5,6.5,,43.2,2515,154,-1125,1003.34,43.4,0
"2019-12-17 19:33:34+00",6.0,7.0,,43.2,4099,198,-1885,1003.39,43.4,0
"2019-12-17 19:38:34+00",5.5,6.5,,43.1,3375,144,-1505,1003.23,43.3,0
"2019-12-17 19:48:34+00",4.2,5.2,,43.2,3265,90,-1466,1002.98,43.4,0
"2019-12-17 19:53:34+00",4.6,5.6,,43.3,769,64,-257,1002.95,43.5,0
"2019-12-17 19:58:34+00",4.7,4.7,,43.3,370,49,-70,1003.17,43.6,0
"2019-12-17 20:03:34+00",4.2,5.2,,43.3,262,89,-44,1003.22,43.6,0
"2019-12-17 20:08:34+00",3.7,4.7,,43.4,156,76,-8,1003.35,43.6,0
"2019-12-17 20:13:34+00",3.8,3.8,,43.4,137,75,12,1003.48,43.6,0
"2019-12-17 20:18:34+00",3.7,4.7,,43.4,214,95,-39,1003.41,43.6,0
"2019-12-17 20:23:34+00",4.4,5.4,,43.3,4871,128,-2265,1003.42,43.5,0
"2019-12-17 20:28:34+00",4.3,4.3,,43.2,4021,114,-1836,1003.38,43.3,0
"2019-12-17 20:33:34+00",4.7,4.7,,43.2,2984,168,-1381,1003.61,43.4,0
"2019-12-17 20:38:34+00",4.4,4.4,,42.9,994,135,-421,1003.6,43.1,0
"2019-12-17 20:43:34+00",4.2,5.2,,42.8,4069,144,-1881,1003.64,43,0
"2019-12-17 20:53:34+00",3.3,4.3,,42.8,2419,114,-1115,1003.53,42.9,0
"2019-12-17 20:58:34+00",4.3,5.3,,42.8,781,194,-361,1003.37,42.9,0
"2019-12-17 21:08:34+00",3.7,4.7,,42.7,3398,112,-1571,1003.64,42.8,0
"2019-12-17 21:13:34+00",4.9,5.9,,42.7,461,167,-167,1003.58,42.8,0
"2019-12-17 21:18:34+00",5.2,5.2,,42.6,240,182,-67,1003.55,42.7,0
"2019-12-17 21:23:34+00",4.4,5.4,,42.5,119,123,2,1003.4,42.6,0
"2019-12-17 21:28:34+00",4.8,4.8,,42.5,137,136,2,1003.43,42.5,0
"2019-12-17 21:33:34+00",3.5,4.5,,42.6,86,110,10,1003.56,42.5,0
"2019-12-17 21:38:34+00",4.4,5.4,,42.5,401,129,-137,1003.42,42.5,0
"2019-12-17 21:43:34+00",3.5,4.5,,42.5,99,123,-28,1003.72,42.5,0
"2019-12-17 21:48:34+00",2.6,3.6,,42.5,72,98,-14,1003.57,42.5,0
"2019-12-17 21:53:34+00",3.5,4.5,,42.5,93,127,-10,1003.65,42.4,0
"2019-12-17 21:58:34+00",4.2,5.2,,42.4,142,137,-26,1003.59,42.4,0
"2019-12-17 22:03:34+00",3.1,4.1,,42.4,52,111,-4,1003.73,42.3,0
"2019-12-17 22:08:34+00",4.5,5.5,,42.4,120,134,5,1003.44,42.3,0
"2019-12-17 22:13:34+00",5.0,6.0,,42.2,201,139,-24,1003.38,42.3,0
"2019-12-17 22:18:34+00",2.9,3.9,,42.2,8,119,5,1003.71,42.3,0
"2019-12-17 22:23:34+00",4.0,4.0,,42.3,-90,145,14,1003.83,42.3,0
"2019-12-17 22:28:34+00",3.1,4.1,,42.4,-87,84,7,1004.03,42.3,0
"2019-12-17 22:33:34+00",5.3,7.3,,42.4,-113,206,19,1004.07,42.3,0
"2019-12-17 22:38:34+00",11.7,14.7,,42.3,-199,485,21,1004,42.3,0
"2019-12-17 22:43:34+00",14.1,16.1,,41.7,-164,612,36,1004.02,41.9,0
"2019-12-17 22:48:34+00",14.1,17.1,,41.3,-50,603,20,1004.15,41.6,0
"2019-12-17 22:53:34+00",13.1,15.1,,41,4,569,29,1004.01,41.2,0
"2019-12-17 22:58:34+00",14.8,16.8,,40.8,-132,631,22,1004.38,40.9,0
"2019-12-17 23:03:34+00",14.0,16.0,,40.4,-264,655,-17,1004.16,40.5,0
"2019-12-17 23:08:34+00",13.1,15.1,,40.2,-173,536,31,1004.42,40.1,0
"2019-12-17 23:13:34+00",13.3,16.3,,39.8,-222,535,37,1004.41,39.7,0
"2019-12-17 23:18:34+00",14.7,16.7,,39.7,-154,612,17,1004.49,39.4,0
"2019-12-17 23:23:34+00",14.7,16.7,,39.5,-193,617,24,1004.53,39.2,0
"2019-12-17 23:28:34+00",15.4,17.4,,39.3,-245,617,34,1004.75,38.9,0
"2019-12-17 23:33:34+00",15.1,17.1,,39.1,-387,520,46,1005.11,38.7,0
"2019-12-17 23:38:34+00",15.7,18.7,,38.9,-383,596,60,1005.46,38.4,0
"2019-12-17 23:43:34+00",16.7,18.7,,38.5,-303,649,36,1004.97,38.1,0
"2019-12-17 23:48:34+00",15.9,17.9,,38.2,-253,655,51,1004.87,37.9,0
"2019-12-17 23:53:34+00",18.0,19.0,,38,344,751,-245,1004.82,37.6,0
"2019-12-17 23:58:34+00",16.5,18.5,,37.8,992,690,-527,1004.95,37.4,0
